This demonstration page uses our WeatherBlox Daily Observations layout. Learn more.

Left ArrowRight Arrow

39.51506, -84.39828

Hourly Observations for March 9, 2015

Temp ( °F °C ) Dew Point ( °F °C ) Humidity (%) Winds ( mph kmh ) Pressure ( in mb ) Visibility ( mi km ) Precip ( " mm )
12:15 am 00:15 Clear 34 1.2 29 -1.7 81 81 undefined N/A N/A 10 16 N/A
12:35 am 00:35 Clear 34 1.2 29 -1.5 82 82 N N/A 30.21 1023 10 16 N/A
12:55 am 00:55 Clear 34 1.2 30 -1.2 84 84 SW 3 6 30.18 1022 10 16 N/A
1:15 am 01:15 Clear 34 1.2 29 -1.5 82 82 N N/A 30.21 1023 10 16 N/A
1:35 am 01:35 Clear N/A N/A N/A undefined N/A N/A 10 16 N/A
1:55 am 01:55 Clear 32 undefined 28 -2.5 83 83 N N/A 30.21 1023 10 16 N/A
2:15 am 02:15 Clear 32 0.2 28 -2.3 84 84 N N/A 30.21 1023 10 16 N/A
2:35 am 02:35 Clear 32 undefined 28 -2.5 83 83 N N/A 30.21 1023 10 16 N/A
2:55 am 02:55 Clear 32 undefined 28 -2.5 83 83 N N/A 30.21 1023 10 16 N/A
3:15 am 03:15 Clear 30 -1.2 25 -3.7 83 83 N N/A 30.21 1023 N/A N/A
3:35 am 03:35 Clear N/A N/A N/A N N/A N/A 10 16 N/A
3:55 am 03:55 Clear 32 undefined 28 -2.3 85 85 undefined N/A N/A 10 16 N/A
4:15 am 04:15 undefined 29 -1.5 26 -3.6 86 86 N N/A 30.21 1023 10 16 N/A
4:35 am 04:35 undefined 29 -1.4 26 -3.6 85 85 N N/A 30.21 1023 N/A N/A
4:55 am 04:55 Clear 29 -1.4 26 -3.4 86 86 N N/A 30.21 1023 10 16 N/A
5:15 am 05:15 Clear 29 -1.5 26 -3.5 86 86 N N/A 30.21 1023 10 16 N/A
5:35 am 05:35 undefined 29 -1.5 26 -3.5 86 86 N N/A 30.21 1023 N/A N/A
5:55 am 05:55 Clear 29 -1.5 26 -3.5 86 86 N N/A N/A 10 16 N/A
6:15 am 06:15 undefined N/A N/A N/A N N/A N/A N/A N/A
6:35 am 06:35 Clear N/A N/A N/A undefined N/A N/A 10 16 N/A
6:55 am 06:55 undefined N/A N/A N/A undefined N/A N/A N/A N/A
7:15 am 07:15 Clear 29 -1.5 26 -3.3 88 88 N N/A 30.24 1024 10 16 N/A
7:35 am 07:35 Clear 29 -1.5 26 -3.4 87 87 N N/A 30.24 1024 10 16 N/A
7:55 am 07:55 Clear 29 -1.5 26 -3.3 88 88 N N/A 30.24 1024 10 16 N/A
8:15 am 08:15 Sunny 29 -1.5 26 -3.3 88 88 N N/A 30.27 1025 10 16 N/A
8:35 am 08:35 Sunny 29 -1.5 26 -3.4 87 87 N N/A 30.27 1025 10 16 N/A
8:55 am 08:55 Sunny 31 -0.7 27 -2.7 87 87 N N/A 30.27 1025 10 16 N/A
9:15 am 09:15 Sunny 34 1.2 31 -0.8 87 87 N N/A 30.27 1025 10 16 N/A
9:35 am 09:35 Sunny 34 1.2 30 -1.1 85 85 N N/A 30.27 1025 10 16 N/A
9:55 am 09:55 Sunny 37 2.6 32 undefined 83 83 N N/A 30.27 1025 10 16 N/A
10:15 am 10:15 Sunny 39 4 33 0.3 77 77 N N/A 30.30 1026 10 16 N/A
10:35 am 10:35 Sunny 42 5.5 33 0.5 71 71 N N/A 30.30 1026 10 16 N/A
10:55 am 10:55 Sunny 46 7.8 35 1.9 67 67 SSW 6 9 30.27 1025 10 16 N/A
11:15 am 11:15 Sunny 47 8.2 35 1.8 64 64 N N/A 30.24 1024 10 16 N/A
11:35 am 11:35 Sunny 49 9.6 38 3.2 65 65 SW 6 9 30.24 1024 10 16 N/A
11:55 am 11:55 Sunny 49 9.6 38 3.2 65 65 WSW 6 9 30.24 1024 10 16 N/A
12:15 pm 12:15 Sunny 49 9.6 36 2.4 61 61 SSW 5 7 30.24 1024 10 16 N/A
12:35 pm 12:35 Sunny 49 9.6 37 2.9 63 63 S 6 9 30.24 1024 10 16 N/A
12:55 pm 12:55 Sunny 50 10.2 37 2.9 61 61 SW 8 13 30.24 1024 10 16 N/A
1:15 pm 13:15 Sunny 52 11 39 3.7 61 61 SSW 6 9 30.24 1024 10 16 N/A
1:35 pm 13:35 Sunny 55 12.5 40 4.7 59 59 WSW 7 11 30.21 1023 10 16 N/A
1:55 pm 13:55 Sunny 55 12.5 40 4.5 58 58 WSW 9 15 30.21 1023 10 16 N/A
2:15 pm 14:15 Sunny 55 12.5 40 4.3 58 58 WSW 8 13 30.21 1023 10 16 N/A
2:35 pm 14:35 Partly Cloudy 55 12.5 39 3.9 56 56 SW 9 15 30.21 1023 10 16 N/A
2:55 pm 14:55 Partly Cloudy 55 13 39 4.1 55 55 SW 13 20 30.21 1023 10 16 N/A
3:15 pm 15:15 Mostly Cloudy 56 13.6 40 4.4 54 54 SW 14 22 30.18 1022 10 16 N/A
3:35 pm 15:35 Mostly Cloudy 57 13.8 40 4.3 53 53 WSW 12 19 30.18 1022 10 16 N/A
3:55 pm 15:55 Partly Cloudy 57 13.8 40 4.5 54 54 WSW 14 22 30.18 1022 10 16 N/A
4:15 pm 16:15 Partly Cloudy 57 13.8 40 4.2 53 53 SW 10 17 30.18 1022 10 16 N/A
4:35 pm 16:35 Partly Cloudy 57 13.8 39 4.1 52 52 WSW 12 19 30.18 1022 10 16 N/A
4:55 pm 16:55 Partly Cloudy 57 13.8 39 4.1 52 52 SW 10 17 30.18 1022 10 16 N/A
5:15 pm 17:15 Partly Cloudy 57 13.8 40 4.5 54 54 WSW 12 19 30.18 1022 10 16 N/A
5:35 pm 17:35 Partly Cloudy 55 12.5 39 3.7 55 55 W 9 15 30.18 1022 10 16 N/A
5:55 pm 17:55 Cloudy 55 12.5 39 3.8 56 56 WSW 7 11 30.18 1022 10 16 N/A
6:15 pm 18:15 Cloudy 55 12.5 40 4.2 57 57 W 8 13 30.18 1022 10 16 N/A
6:35 pm 18:35 Cloudy 55 12.5 40 4.4 58 58 W 5 7 30.18 1022 10 16 N/A
6:55 pm 18:55 Cloudy 55 12.5 40 4.7 59 59 W 3 6 30.18 1022 10 16 N/A
7:15 pm 19:15 Cloudy 55 12.5 41 5.1 61 61 W 5 7 30.18 1022 10 16 N/A
7:35 pm 19:35 Cloudy 52 11 39 4.1 63 63 NW 3 6 30.18 1022 10 16 N/A
7:55 pm 19:55 Cloudy 52 11.2 39 4.1 62 62 N N/A 30.18 1022 10 16 N/A
8:15 pm 20:15 Cloudy 50 10.2 38 3.6 64 64 N N/A 30.21 1023 10 16 N/A
8:35 pm 20:35 Cloudy 50 9.8 38 3.5 65 65 N N/A 30.21 1023 10 16 N/A
8:55 pm 20:55 Partly Cloudy 44 6.8 37 2.6 75 75 N N/A 30.21 1023 10 16 N/A
9:15 pm 21:15 Clear 42 5.7 36 2.4 80 80 NE 3 6 30.21 1023 10 16 N/A
9:35 pm 21:35 Clear 40 4.7 35 1.7 81 81 N N/A 30.24 1024 10 16 N/A
9:55 pm 21:55 Mostly Cloudy 39 4 34 1.1 82 82 N N/A 30.24 1024 10 16 N/A
10:15 pm 22:15 Cloudy 39 4 35 1.5 84 84 N N/A 30.24 1024 10 16 N/A
10:35 pm 22:35 Cloudy 39 4 34 1.3 83 83 N N/A 30.24 1024 10 16 N/A
10:55 pm 22:55 Cloudy 39 4.1 35 1.5 83 83 N N/A 30.24 1024 10 16 N/A
11:15 pm 23:15 Cloudy 39 4 34 1.3 83 83 N N/A 30.24 1024 10 16 N/A
11:35 pm 23:35 Cloudy 40 4.7 35 1.8 82 82 N N/A 30.24 1024 10 16 N/A
11:55 pm 23:55 Cloudy 40 4.7 35 1.7 81 81 N N/A 30.24 1024 10 16 N/A

Powered by AerisWeather